GFSNW_prec_radar_276.txt.gz
Reflectivity
-20 -20 12 22 -20 -4 -17 10 22 17 43 39 36 4 -20 -20 -20 -20 -20 -20 -20 -20 -20 -20 -20 -20 -20 -20 -20 -20 -20 -20 -20 -20 -20 -20 -20 -20 -20 -20 -20 -20 -20 -20
-20 -11 14 17 16 3 -20 11 13 10 40 39 31 9 -9 -20 -20 -20 -20 -20 -20 -20 -20 -20 -20 -20 -20 -20 -20 -20 -20 -20 -20 -20 -20 -20 -20 -20 -20 -20 -20 -20 -20 -20
-9 -20 12 -2 16 -10 -20 -11 16 1 33 33 22 13 12 -20 -20 -20 -20 -20 -20 -20 -20 -20 -20 -20 -20 -20 -20 -20 -20 -20 -20 -20 -20 -20 -20 -20 -20 -20 -20 -20 -20 -20
1 -10 -20 -18 6 -20 -20 4 -2 10 13 32 21 16 17 -20 -20 -20 -20 -20 -20 -20 -20 -20 -20 -20 -20 -20 -20 -20 -20 -20 -20 -20 -20 -20 -20 -20 -20 -20 -20 -20 -20 -20
8 10 -20 -17 15 -20 -20 6 -20 -7 22 6 33 33 30 -20 -20 -20 -20 -20 -20 -20 -20 -20 -20 -20 -20 -20 -20 -20 -20 -20 -20 -20 -20 -20 -20 -20 -20 -20 -20 -20 -20 -20
6 -1 12 14 9 -20 -2 -20 -20 -10 5 12 26 31 -13 -20 -20 -20 -20 -20 -20 -20 -20 -20 -20 -20 -20 -20 -20 -20 -20 -20 -20 -20 -20 -20 -20 -20 -20 -20 -20 -20 -20 -20
9 12 4 18 -14 -20 -20 -20 -5 -11 -1 9 34 20 -18 -20 -20 -20 -20 -20 -20 -20 -20 -20 -20 -20 -20 -20 -20 -20 -20 -20 -20 -20 -20 -20 -20 -20 -20 -20 -20 -20 -20 -20
10 11 2 -12 -20 -20 -20 -20 -5 -10 6 8 23 8 12 3 -8 -20 -20 -20 -20 -20 -20 -20 -20 -20 -20 -20 -20 -20 -20 -20 -20 -20 -20 -20 -20 -20 -20 -20 -20 -20 -20 -20
9 -20 6 11 -20 -20 -20 -20 -20 7 24 14 10 2 18 17 -20 -20 -20 -20 -20 -20 -20 -20 -20 -20 -20 -20 -20 -20 -20 -20 -20 -20 -20 -20 -20 -20 -20 -20 -20 -20 -20 -20
2 -20 17 -20 -20 -20 -20 -20 -20 -6 23 5 -4 1 -17 -1 -20 -20 -20 -20 -20 -20 -20 -20 -20 -20 -20 -20 -20 -20 -20 -20 -20 -20 -20 -20 -20 -20 -20 -20 -20 -20 -20 -20
5 8 18 -20 -20 -20 -20 -5 13 5 14 25 8 11 4 -3 -20 -20 -20 -20 -20 -20 -20 -20 -20 -20 -20 -20 -20 -20 -20 -20 -20 -20 -20 -20 -20 -20 -20 -20 -20 -20 -20 -20
8 13 10 -20 -20 -20 12 19 21 10 21 25 9 7 -20 -20 -20 -20 -20 -20 -20 -20 -20 -20 -20 -20 -20 -20 -20 -20 -20 -20 -20 -20 -20 -20 -20 -20 -20 -20 -20 -20 -20 -20
3 -2 -0 -19 -18 6 13 20 27 33 35 30 25 17 21 22 19 -20 -20 -20 -20 -20 -20 -20 -20 -20 -20 -20 -20 -20 -20 -20 -20 -20 -20 -20 -20 -20 -20 -20 -20 -20 -20 -20
-11 -1 1 1 6 13 15 21 29 29 31 38 33 29 30 27 7 -15 -16 -20 -20 -20 -20 -20 -20 -20 -20 -20 -20 -20 -20 -20 -20 -20 -20 -20 -20 -20 -20 -20 -20 -20 -20 -20
-11 4 0 -1 4 15 22 36 37 34 40 33 19 16 14 1 -0 -19 -20 -20 -20 -20 -20 -20 -20 -20 -20 -20 -20 -20 -20 -20 -20 -20 -20 -20 -20 -20 -20 -20 -20 -20 -20 -20
-3 -0 9 -1 12 22 34 43 37 36 34 8 16 7 26 33 5 -20 -20 -20 -20 -20 -20 -20 -20 -20 -20 -20 -20 -20 -20 -20 -20 -20 -20 -20 -20 -20 -20 -20 -20 -20 -20 -20
13 11 8 13 22 28 40 37 35 33 29 33 33 36 31 22 -3 -20 -20 -20 -20 -20 -20 -20 -20 -20 -20 -20 -20 -20 -20 -20 -20 -20 -20 -20 -20 -20 -20 -20 -20 -20 -20 -20
14 8 11 16 26 28 27 35 30 8 21 33 30 33 29 21 -19 -5 -20 -20 -20 -20 -20 -20 -20 -20 -20 -20 -20 -20 -20 -20 -20 -20 -20 -20 -20 -20 -20 -20 -20 -20 -20 -20
18 23 26 32 39 36 28 33 22 20 25 30 20 4 14 -20 -20 -20 -20 -20 -20 -20 -20 -20 -20 -20 -20 -20 -20 -20 -20 -20 -20 -20 -20 -20 -20 -20 -20 -20 -20 -20 -20 -20
16 17 37 46 41 34 38 40 39 33 25 18 -0 -19 -20 -20 -20 -20 -20 -20 -20 -20 -20 -20 -20 -20 -20 -20 -20 -20 -20 -20 -20 -20 -20 -20 -20 -20 -20 -20 -20 -20 -20 -20
11 40 40 29 35 36 37 41 34 34 31 11 -20 -20 -20 -20 -20 -20 -20 -20 -20 -20 -20 -20 -20 -20 -20 -20 -20 -20 -20 -20 -20 -20 -20 -20 -20 -20 -20 -20 -20 -20 -20 -20
24 36 31 43 41 36 33 25 35 27 27 -13 -20 -20 -20 -11 -19 -8 -20 -20 -20 -20 -20 -20 -20 -20 -20 -20 -20 -20 -20 -20 -20 -20 -20 -20 -20 -20 -20 -20 -20 -20 -20 -20
27 24 36 31 28 28 21 18 19 7 -6 -1 -1 -18 -20 -20 -20 -20 -20 -20 -20 -20 -20 -20 -20 -20 -20 -20 -20 -20 -20 -20 -20 -20 -20 -20 -20 -20 -20 -20 -20 -20 -20 -20
35 36 22 33 21 20 -18 -19 -20 -20 -20 -20 -18 -20 -20 -20 -20 -20 -20 -20 -20 -20 -20 -20 -20 -20 -20 -20 -20 -20 -20 -20 -20 -20 -20 -20 -20 -20 -20 -20 -20 -20 -20 -20
28 30 14 15 -17 -19 -19 -20 -7 -17 -20 -20 -20 -20 -20 -20 -20 -20 -20 -20 -20 -20 -20 -20 -20 -20 -20 -20 -20 -20 -20 -20 -20 -20 -20 -20 -20 -20 -20 -20 -20 -20 -20 -20
15 -3 -11 -20 -20 -20 -20 -19 5 2 -17 -20 -13 -9 -20 -20 -20 -20 -20 -20 -20 -20 -20 -20 -20 -20 -20 -20 -20 -20 -20 -20 -20 -20 -20 -20 -20 -20 -20 -20 -20 -20 -20 -20
0 -20 -20 -20 -20 -20 -20 -4 2 -3 8 3 11 9 -20 -20 -20 -20 -20 -20 -20 -20 -20 -20 -20 -20 -20 -20 -20 -20 -20 -20 -20 -20 -20 -20 -20 -20 -20 -20 -20 -20 -20 -20

GFSNW_prec_radar_279.txt.gz
Reflectivity
13 -20 -20 -20 19 -20 7 -20 -20 -20 42 40 40 30 -20 -20 -20 -20 -20 -20 -19 -17 -20 -20 -20 -20 -20 -20 -20 -20 -20 -20 -20 -20 -20 -20 -20 -20 -20 -20 -20 -20 -20 -20
-20 -1 4 16 -2 -6 -20 -20 -20 -7 30 39 37 19 -8 -20 -20 -20 -20 -20 -20 -17 -20 -20 -20 -20 -20 -20 -20 -20 -20 -20 -20 -20 -20 -20 -20 -20 -20 -20 -20 -20 -20 -20
-20 -1 -17 2 18 -7 -20 -20 -20 -17 37 35 28 10 29 -20 -20 -20 -20 -20 -20 -20 -20 -20 -20 -20 -20 -20 -20 -20 -20 -20 -20 -20 -20 -20 -20 -20 -20 -20 -20 -20 -20 -20
1 -10 14 18 18 -20 -20 -20 -20 -2 32 31 32 12 -3 -20 -20 -20 -20 -20 -20 -20 -20 -20 -20 -20 -20 -20 -20 -20 -20 -20 -20 -20 -20 -20 -20 -20 -20 -20 -20 -20 -20 -20
12 12 16 12 12 -3 -20 -20 -20 -20 1 19 15 27 24 -20 -20 -20 -20 -20 -20 -20 -20 -20 -20 -20 -20 -20 -20 -20 -20 -20 -20 -20 -20 -20 -20 -20 -20 -20 -20 -20 -20 -20
5 12 5 10 12 18 14 -20 -20 -20 -18 9 19 17 7 -20 0 -18 -20 -20 -20 -20 -20 -20 -20 -20 -20 -20 -20 -20 -20 -20 -20 -20 -20 -20 -20 -20 -20 -20 -20 -20 -20 -20
4 8 4 15 13 -4 -20 -20 -20 -20 6 7 20 -8 9 1 17 -13 -20 -20 -20 -20 -20 -20 -20 -20 -20 -20 -20 -20 -20 -20 -20 -20 -20 -20 -20 -20 -20 -20 -20 -20 -20 -20
9 8 7 15 10 17 -20 -20 -20 -20 -20 -18 9 12 5 13 17 5 -20 -20 -20 -20 -20 -20 -20 -20 -20 -20 -20 -20 -20 -20 -20 -20 -20 -20 -20 -20 -20 -20 -20 -20 -20 -20
3 5 5 18 16 18 2 -20 -20 -20 -20 -20 -8 -19 -20 -5 10 26 0 -20 -20 -20 -20 -20 -20 -20 -20 -20 -20 -20 -20 -20 -20 -20 -20 -20 -20 -20 -20 -20 -20 -20 -20 -20
1 5 2 13 10 7 -20 -20 -20 -20 -20 -20 -20 8 -11 5 -20 -11 -18 -20 -20 -20 -20 -20 -20 -20 -20 -20 -20 -20 -20 -20 -20 -20 -20 -20 -20 -20 -20 -20 -20 -20 -20 -20
1 5 3 5 12 6 -12 -20 -20 -20 -20 -20 -20 -20 4 -15 -18 12 -4 -20 -20 -20 -20 -20 -20 -20 -20 -20 -20 -20 -20 -20 -20 -20 -20 -20 -20 -20 -20 -20 -20 -20 -20 -20
-2 4 1 5 13 7 11 -20 -20 -20 -20 -20 -15 -12 -20 -20 -20 -17 -13 -20 -20 -20 -20 -20 -20 -20 -20 -20 -20 -20 -20 -20 -20 -20 -20 -20 -20 -20 -20 -20 -20 -20 -20 -20
-20 5 3 -8 -4 5 12 -20 -17 -17 -20 -20 3 -16 -12 -10 11 13 17 -20 -20 -20 -20 -20 -20 -20 -20 -20 -20 -20 -20 -20 -20 -20 -20 -20 -20 -20 -20 -20 -20 -20 -20 -20
-6 -4 3 -20 -2 8 18 -19 8 -20 -20 -7 -6 10 -20 -11 21 25 26 17 17 -13 -20 -20 -20 -20 -20 -20 -20 -20 -20 -20 -20 -20 -20 -20 -20 -20 -20 -20 -20 -20 -20 -20
11 -5 2 -20 4 21 16 -20 -8 -20 -19 -18 -2 10 -20 -13 9 5 8 23 16 -20 -20 -20 -20 -20 -20 -20 -20 -20 -20 -20 -20 -20 -20 -20 -20 -20 -20 -20 -20 -20 -20 -20
13 -2 -8 7 11 23 11 11 10 -20 -15 36 30 16 1 7 10 9 23 5 -19 -20 -20 -20 -20 -20 -20 -20 -20 -20 -20 -20 -20 -20 -20 -20 -20 -20 -20 -20 -20 -20 -20 -20
-2 -6 7 20 12 16 14 12 -16 4 39 38 37 37 15 13 13 12 30 20 -20 -7 -19 -20 -20 -20 -20 -20 -20 -20 -20 -20 -20 -20 -20 -20 -20 -20 -20 -20 -20 -20 -20 -20
-11 5 17 20 17 14 13 25 26 26 34 31 33 31 23 34 34 30 15 -9 -20 -20 -20 -20 -20 -20 -20 -20 -20 -20 -20 -20 -20 -20 -20 -20 -20 -20 -20 -20 -20 -20 -20 -20
16 17 21 16 22 28 22 26 37 38 29 34 38 29 28 5 11 18 -4 -20 -16 -20 -20 -20 -20 -20 -20 -20 -20 -20 -20 -20 -20 -20 -20 -20 -20 -20 -20 -20 -20 -20 -20 -20
17 19 27 33 32 25 29 34 44 43 34 34 31 -13 15 17 26 13 -18 -20 -19 -20 -20 -20 -20 -20 -20 -20 -20 -20 -20 -20 -20 -20 -20 -20 -20 -20 -20 -20 -20 -20 -20 -20
29 38 31 31 16 30 41 37 40 39 41 19 -20 -6 -10 -16 -20 -20 -17 -20 -20 -20 -20 -20 -20 -20 -20 -20 -20 -20 -20 -20 -20 -20 -20 -20 -20 -20 -20 -20 -20 -20 -20 -20
28 17 26 24 37 40 30 31 35 34 18 -18 -20 -16 4 0 -8 -11 -1 -20 -20 -20 -20 -20 -20 -20 -20 -20 -20 -20 -20 -20 -20 -20 -20 -20 -20 -20 -20 -20 -20 -20 -20 -20
12 18 39 34 30 29 30 24 28 18 -19 -20 -20 -15 7 20 20 17 1 -20 -20 -20 -20 -20 -20 -20 -20 -20 -20 -20 -20 -20 -20 -20 -20 -20 -20 -20 -20 -20 -20 -20 -20 -20
27 34 27 26 28 30 13 -4 -10 -20 -20 -20 -20 -1 25 28 25 16 -20 -20 -20 -20 -20 -20 -20 -20 -20 -20 -20 -20 -20 -20 -20 -20 -20 -20 -20 -20 -20 -20 -20 -20 -20 -20
22 23 21 14 -6 -10 -17 -20 -20 -20 -19 -20 -16 -0 7 3 2 -20 -20 -20 -20 -20 -20 -20 -20 -20 -20 -20 -20 -20 -20 -20 -20 -20 -20 -20 -20 -20 -20 -20 -20 -20 -20 -20
4 27 -20 -18 -20 -20 -20 -12 2 -7 -20 0 11 18 22 10 -13 -20 -20 -20 -20 -20 -20 -20 -20 -20 -20 -20 -20 -20 -20 -20 -20 -20 -20 -20 -20 -20 -20 -20 -20 -20 -20 -20
12 -12 -20 -20 -20 -20 -20 4 -8 -14 -5 17 26 18 -9 -13 -20 -20 -20 -20 -20 -20 -20 -20 -20 -20 -20 -20 -20 -20 -20 -20 -20 -20 -20 -20 -20 -20 -20 -20 -20 -20 -20 -20

GFSNW_prec_radar_282.txt.gz
Reflectivity
-20 -18 -20 -20 22 20 20 -20 -20 -17 22 41 37 34 -3 7 -15 -20 -20 -20 -20 -20 -20 6 -9 -20 -20 -20 -20 -20 -20 -20 -20 -20 -20 -20 -20 -20 -20 -20 -20 -20 -20 -20
-20 -7 -20 -19 -20 21 -20 -20 -20 -15 20 30 37 23 22 -17 -20 -20 -20 -20 -20 -20 -20 -7 -20 -20 -20 -20 -20 -20 -20 -20 -20 -20 -20 -20 -20 -20 -20 -20 -20 -20 -20 -20
-16 -3 -20 23 8 21 -13 -20 -20 -20 22 29 30 23 28 16 -16 -20 -20 -20 -20 -20 -20 -20 -20 -20 -20 -20 -20 -20 -20 -20 -20 -20 -20 -20 -20 -20 -20 -20 -20 -20 -20 -20
10 -5 -20 -20 -10 23 17 -20 -20 -20 -20 -13 22 32 21 -13 -11 -20 -20 -20 -20 -20 -20 -20 -3 -20 -20 -20 -20 -20 -20 -20 -20 -20 -20 -20 -20 -20 -20 -20 -20 -20 -20 -20
6 -8 16 17 21 22 26 -20 -20 -20 -20 -14 15 31 32 5 23 -18 -20 -20 -20 -20 -20 3 12 -20 -20 -20 -20 -20 -20 -20 -20 -20 -20 -20 -20 -20 -20 -20 -20 -20 -20 -20
11 7 -20 -18 -8 23 34 -17 -20 -20 -20 -19 13 22 28 27 27 -12 -8 -20 -20 -20 -20 8 -19 -20 -20 -20 -20 -20 -20 -20 -20 -20 -20 -20 -20 -20 -20 -20 -20 -20 -20 -20
10 9 7 10 0 -5 25 -20 -20 -20 -19 4 17 5 8 7 29 5 -4 4 -20 -20 -20 -3 -20 -20 -20 -20 -20 -20 -20 -20 -20 -20 -20 -20 -20 -20 -20 -20 -20 -20 -20 -20
10 -1 9 5 17 21 8 -20 -20 -20 -20 -11 20 10 11 12 14 24 19 12 -20 4 -11 -20 -20 -20 -20 -20 -20 -20 -20 -20 -20 -20 -20 -20 -20 -20 -20 -20 -20 -20 -20 -20
8 -7 9 9 16 20 -12 -20 -20 -20 -20 -20 14 21 5 21 32 25 -10 -19 -20 -17 -20 -20 -20 -20 -20 -20 -20 -20 -20 -20 -20 -20 -20 -20 -20 -20 -20 -20 -20 -20 -20 -20
11 4 10 10 14 4 5 -20 -20 -20 -20 -20 -1 18 27 -2 25 16 9 -17 -20 -20 -20 -20 -20 -20 -20 -20 -20 -20 -20 -20 -20 -20 -20 -20 -20 -20 -20 -20 -20 -20 -20 -20
12 5 8 11 14 21 -1 -20 -20 -20 -20 -20 -20 -10 15 24 21 24 5 -20 -20 -20 -20 -20 -20 -20 -20 -20 -20 -20 -20 -20 -20 -20 -20 -20 -20 -20 -20 -20 -20 -20 -20 -20
-8 -0 12 15 16 20 21 -0 -20 -20 -20 -20 -20 -11 -19 23 19 9 -20 -20 -10 -20 -20 -20 -20 -20 -20 -20 -20 -20 -20 -20 -20 -20 -20 -20 -20 -20 -20 -20 -20 -20 -20 -20
10 12 11 10 16 17 18 -8 -20 -20 -20 -20 -20 -20 -10 -10 9 -11 32 -1 -20 -20 -19 -5 -9 -20 -20 -20 -20 -20 -20 -20 -20 -20 -20 -20 -20 -20 -20 -20 -20 -20 -20 -20
11 -10 11 17 17 18 20 14 -19 -20 -20 -20 -20 -20 -20 -6 -5 -20 -20 -20 -20 -4 17 -7 -20 -20 -20 -20 -20 -20 -20 -20 -20 -20 -20 -20 -20 -20 -20 -20 -20 -20 -20 -20
11 15 9 16 17 12 17 21 -19 -20 -20 -9 -5 -20 -20 -20 -20 -19 -19 -13 -13 21 19 -20 -20 -20 -20 -20 -20 -20 -20 -20 -20 -20 -20 -20 -20 -20 -20 -20 -20 -20 -20 -20
14 11 2 21 15 22 26 34 13 1 -20 -20 -20 -20 -20 -20 -18 -20 1 -12 -7 1 -20 -20 -20 -20 -20 -20 -20 -20 -20 -20 -20 -20 -20 -20 -20 -20 -20 -20 -20 -20 -20 -20
19 13 4 20 18 13 24 21 4 11 -20 -14 -20 -20 -20 -20 23 20 -1 2 22 -5 -20 -20 -20 -20 -20 -20 -20 -20 -20 -20 -20 -20 -20 -20 -20 -20 -20 -20 -20 -20 -20 -20
18 5 8 18 23 25 29 18 -20 -20 -7 -4 -1 -12 -3 -20 -20 13 1 5 -17 -20 -20 -10 -11 -20 -20 -20 -20 -20 -20 -20 -20 -20 -20 -20 -20 -20 -20 -20 -20 -20 -20 -20
13 8 19 26 31 34 37 21 -10 -20 -20 -20 4 -19 18 24 -5 6 -7 -7 8 -19 -20 -20 -20 -20 -20 -20 -20 -20 -20 -20 -20 -20 -20 -20 -20 -20 -20 -20 -20 -20 -20 -20
19 22 29 36 37 32 34 22 18 24 21 8 -20 -4 27 19 15 26 24 1 -17 -19 -20 -20 -20 -20 -20 -20 -20 -20 -20 -20 -20 -20 -20 -20 -20 -20 -20 -20 -20 -20 -20 -20
26 34 35 34 31 24 30 22 -3 12 22 -2 -20 -20 30 21 -11 -20 -3 -15 -20 -20 -20 -20 -20 -20 -20 -20 -20 -20 -20 -20 -20 -20 -20 -20 -20 -20 -20 -20 -20 -20 -20 -20
32 29 36 30 34 26 24 15 5 1 -3 -9 -20 -20 22 25 6 10 7 -20 -20 -20 -20 -20 -20 -20 -20 -20 -20 -20 -20 -20 -20 -20 -20 -20 -20 -20 -20 -20 -20 -20 -20 -20
18 16 26 20 25 19 15 -6 6 16 7 -18 -8 2 11 33 26 19 -2 -19 -20 -20 -20 -20 -20 -20 -20 -20 -20 -20 -20 -20 -20 -20 -20 -20 -20 -20 -20 -20 -20 -20 -20 -20
10 19 21 13 -20 -20 -19 -20 -20 -20 -18 -10 -13 5 37 29 10 9 -18 -18 -20 -20 -20 -20 -20 -20 -20 -20 -20 -20 -20 -20 -20 -20 -20 -20 -20 -20 -20 -20 -20 -20 -20 -20
-13 -0 1 -20 -19 -20 -20 -15 -17 13 6 -13 -15 14 1 -4 13 -2 -20 -20 -20 -20 -20 -20 -20 -20 -20 -20 -20 -20 -20 -20 -20 -20 -20 -20 -20 -20 -20 -20 -20 -20 -20 -20
-5 38 -2 -18 -20 -20 -20 -19 -11 25 13 -13 -9 9 8 8 -2 -17 -20 -20 -20 -20 -20 -20 -20 -20 -20 -20 -20 -20 -20 -20 -20 -20 -20 -20 -20 -20 -20 -20 -20 -20 -20 -20
41 23 -20 -20 -20 -20 -20 -20 -19 -5 -4 5 3 -10 -10 -6 -20 -20 -20 -20 -20 -20 -20 -20 -20 -20 -20 -20 -20 -20 -20 -20 -20 -20 -20 -20 -20 -20 -20 -20 -20 -20 -20 -20

GFSNW_prec_radar_285.txt.gz
Reflectivity
-20 -20 -20 -20 -19 -4 4 -4 -20 -20 -1 3 39 34 26 -13 -20 -20 -20 -20 -20 -20 -20 -20 -20 -20 -20 -20 -20 -20 -20 -20 -20 -20 -20 -20 -20 -20 -20 -20 -20 -20 -20 -20
14 -20 -20 -12 -1 20 -14 -16 -20 -20 26 13 35 34 23 14 12 -20 -20 -20 -20 -20 -20 -20 -20 -20 -20 -15 -20 -20 -20 -20 -20 -20 -20 -20 -20 -20 -20 -20 -20 -20 -20 -20
4 -16 -20 12 18 20 2 -4 -20 -20 -4 28 29 31 23 20 15 -10 -20 -20 -20 -20 -20 -20 -20 -20 -20 -20 -20 -20 -20 -20 -20 -20 -20 -20 -20 -20 -20 -20 -20 -20 -20 -20
-20 -20 -20 -18 8 19 -5 -10 -20 -20 -20 -13 11 2 23 31 4 -20 -20 -20 -20 -20 -20 -20 -20 -20 -14 -20 -20 -20 -20 -20 -20 -20 -20 -20 -20 -20 -20 -20 -20 -20 -20 -20
-20 -20 -20 -20 -7 26 18 -0 -20 -20 -20 1 0 27 34 35 10 12 2 -20 -20 -20 -20 -20 -20 -20 -6 -20 -20 -20 -20 -20 -20 -20 -20 -20 -20 -20 -20 -20 -20 -20 -20 -20
-5 -20 -20 -20 -11 26 28 20 -20 -20 -20 -20 14 13 21 25 6 -0 3 -1 -19 -20 -20 -20 -20 -20 -20 -20 -20 -20 -20 -20 -20 -20 -20 -20 -20 -20 -20 -20 -20 -20 -20 -20
-11 -3 -9 -20 -20 -3 18 6 -20 -20 -20 -7 6 11 -3 31 26 17 13 13 -20 -20 -20 -20 -20 -20 -20 -20 -20 -20 -20 -20 -20 -20 -20 -20 -20 -20 -20 -20 -20 -20 -20 -20
12 7 4 -20 -20 -20 9 -19 -19 -20 -20 -20 -15 11 14 15 32 24 27 3 -7 -16 -20 -20 -20 -20 -20 -20 -20 -20 -20 -20 -20 -20 -20 -20 -20 -20 -20 -20 -20 -20 -20 -20
13 12 6 6 -20 -18 22 -6 -20 -20 -20 -20 -20 14 32 22 35 36 27 16 -11 -20 -20 -20 -20 -20 -19 -20 -20 -20 -20 -20 -20 -20 -20 -20 -20 -20 -20 -20 -20 -20 -20 -20
13 13 -9 -20 -1 -20 21 -20 -20 -17 -14 -20 -20 21 27 37 20 31 20 22 1 -11 -20 -20 -20 -20 -10 -20 -20 -20 -20 -20 -20 -20 -20 -20 -20 -20 -20 -20 -20 -20 -20 -20
17 14 5 -20 -20 -20 23 -20 -20 -10 -7 -20 -20 -20 35 24 27 7 16 17 -4 -2 -20 -20 -20 -20 -20 -20 -20 -20 -20 -20 -20 -20 -20 -20 -20 -20 -20 -20 -20 -20 -20 -20
22 14 10 9 -12 -15 20 11 -20 -20 -20 -20 -20 -19 21 16 26 31 15 22 2 -19 -20 -20 -20 -20 -20 -20 -20 -20 -20 -20 -20 -20 -20 -20 -20 -20 -20 -20 -20 -20 -20 -20
15 10 12 -20 14 13 19 15 -20 -1 -17 -20 -20 -20 2 29 27 13 23 17 16 13 -18 -20 -20 -20 10 -19 -20 -20 -20 -20 -20 -20 -20 -20 -20 -20 -20 -20 -20 -20 -20 -20
4 16 2 -20 5 16 20 21 -16 -20 -20 -7 -20 -20 -19 7 35 22 -1 15 11 9 15 1 -20 -20 -4 -20 -20 -20 -20 -20 -20 -20 -20 -20 -20 -20 -20 -20 -20 -20 -20 -20
-20 -1 18 6 -6 14 22 23 -12 -20 -20 -20 -20 -8 -20 1 -2 34 8 -16 -10 1 14 -19 -20 -20 -20 -20 -20 -20 -20 -20 -20 -20 -20 -20 -20 -20 -20 -20 -20 -20 -20 -20
-16 -20 -17 15 12 21 32 35 -0 -20 -20 -20 -20 -20 -20 -20 -20 15 10 -8 2 28 1 -18 -20 -20 -20 -20 -20 -20 -20 -20 -20 -20 -20 -20 -20 -20 -20 -20 -20 -20 -20 -20
-19 3 -19 9 19 30 31 26 10 -20 10 27 -20 -20 -20 -20 -20 -16 -1 -19 -4 -20 -6 -20 -20 -20 -20 -20 -20 -20 -20 -20 -20 -20 -20 -20 -20 -20 -20 -20 -20 -20 -20 -20
17 6 -14 13 27 35 29 0 -20 -20 19 14 -18 -17 -20 -20 -20 -20 -20 -19 4 -20 -19 -20 -20 -20 -20 -20 -20 -20 -20 -20 -20 -20 -20 -20 -20 -20 -20 -20 -20 -20 -20 -20
28 -12 20 18 36 37 30 16 -6 -20 -14 -20 -13 -13 -20 -20 -20 -20 -12 -18 11 -9 -19 -20 -20 -20 -20 -13 -20 -20 -20 -20 -20 -20 -20 -20 -20 -20 -20 -20 -20 -20 -20 -20
28 22 30 34 39 30 9 28 29 21 0 -16 -1 -20 17 -20 -15 -5 33 6 29 -4 -20 -20 -20 -20 -19 -12 -20 -20 -20 -20 -20 -20 -20 -20 -20 -20 -20 -20 -20 -20 -20 -20
36 21 30 30 34 14 27 23 13 22 -9 -20 -20 -20 -3 7 -2 -3 8 -5 -20 -11 -20 -20 -20 -20 -13 -20 -20 -20 -20 -20 -20 -20 -20 -20 -20 -20 -20 -20 -20 -20 -20 -20
36 6 30 34 25 32 20 10 -20 -20 -20 -20 -20 -20 -20 21 29 17 -12 12 10 -20 -20 -20 -20 -20 -20 -20 -20 -20 -20 -20 -20 -20 -20 -20 -20 -20 -20 -20 -20 -20 -20 -20
15 9 34 37 28 17 5 -8 -20 -20 -8 -20 -20 -20 -20 22 32 20 -20 -20 -20 -20 -20 -20 -20 -20 -20 -20 -20 -20 -20 -20 -20 -20 -20 -20 -20 -20 -20 -20 -20 -20 -20 -20
11 -10 18 21 -3 -20 -20 -20 -20 -20 -20 -20 -20 -20 -20 21 26 27 -19 -20 -20 -20 -20 -20 -16 -20 -20 -20 -20 -20 -20 -20 -20 -20 -20 -20 -20 -20 -20 -20 -20 -20 -20 -20
-11 -20 2 -20 -20 -20 -20 -20 -20 -20 -20 -20 -20 -20 -20 -19 21 -9 -6 -20 -20 -20 -20 -20 -9 -20 -20 -20 -20 -20 -20 -20 -20 -20 -20 -20 -20 -20 -20 -20 -20 -20 -20 -20
-20 -20 -20 -20 -20 -20 -20 -20 -20 -20 -20 -20 -20 -20 -20 -15 -20 3 -20 -20 -20 -20 -20 -20 -20 -20 -20 -20 -20 -20 -20 -20 -20 -20 -20 -20 -20 -20 -20 -20 -20 -20 -20 -20
-20 -20 -20 -20 -20 -20 -20 -20 -20 -20 -13 20 -10 -20 -20 -20 -20 -20 -20 -20 -20 -20 -20 -20 -20 -20 -20 -20 -20 -20 -20 -20 -20 -20 -20 -20 -20 -20 -20 -20 -20 -20 -20 -20

GFSNW_prec_radar_288.txt.gz
Reflectivity
-20 -20 -20 -18 16 -20 -20 9 17 -20 -19 15 10 5 -6 29 11 -12 -20 -20 -20 -20 -20 -20 -20 -20 -20 -20 -20 -20 -17 -20 -20 -20 -20 -20 -20 -18 16 15 -20 -20 -20 -19
-20 -20 -20 -20 10 0 22 13 15 -10 -15 8 -1 12 23 33 8 -20 -20 -20 -20 -20 -20 -20 -20 -20 -20 -20 -20 -20 -20 -20 -20 -20 -20 -20 -20 -20 -20 -20 8 -20 -13 14
5 -13 -20 -20 -20 -5 19 8 18 -16 6 -8 22 10 18 30 10 10 -10 -20 -20 -20 -20 -20 -20 -20 -20 -20 -20 -20 -20 -20 -20 -20 -20 -20 -20 -20 -20 -20 1 -20 -20 19
-19 -20 -20 -20 -1 -0 19 3 16 -4 -11 1 6 13 -16 9 26 5 -6 1 8 -20 -20 -20 -20 -20 -20 -20 -20 -20 -20 -20 -20 -20 -20 -20 -20 -20 -20 -20 -20 -20 17 -20
19 -20 -20 -18 -20 17 20 18 7 -12 -20 -20 5 24 -20 10 27 8 -12 2 -16 -20 -20 -20 -20 -20 -20 -20 2 -20 -20 -20 -20 -20 -20 -20 -20 -20 -20 -20 -20 -20 -20 -20
11 -2 -13 -20 -20 21 19 23 -13 -10 -13 -1 -20 17 8 3 37 21 9 13 13 -20 -20 -20 -20 -20 -20 -20 -15 -18 -20 -20 -20 -20 -20 -20 -20 -20 -20 -20 -20 -20 -20 -20
5 8 -18 -20 -20 12 20 9 20 23 8 7 -16 -19 22 14 37 14 6 -20 -20 -20 -15 -20 -20 -20 -20 -20 -20 -8 -20 -20 -20 -20 -20 -20 -20 -20 -20 -20 -20 -20 -20 -20
10 7 -19 -20 -20 0 23 17 14 20 14 4 -20 -20 -8 17 33 33 20 -9 -17 -20 11 -20 -20 -20 -20 -20 -20 -20 -20 -20 -20 -20 -20 -20 -20 -20 -20 -20 -20 -20 -20 -20
-10 -4 -14 -18 -20 -20 20 18 8 19 16 0 -20 -20 -20 25 31 31 34 11 10 4 16 -11 -20 -20 -20 -20 -20 -20 -20 -20 -20 -20 -20 -20 -20 -20 -20 -20 -20 -20 -20 -20
12 12 12 -7 -20 -9 22 9 0 22 19 -4 -20 -20 33 35 23 33 29 18 15 6 -20 -20 -20 -20 -20 -20 -20 -19 -20 -20 -2 -20 -14 -20 -20 -20 -20 -20 -20 -20 -20 -20
15 14 15 6 -20 -20 19 -4 18 19 17 6 -20 -20 1 23 37 14 28 35 18 5 -18 -20 -20 -20 -20 -20 -20 -20 -20 -20 -20 -20 -20 -20 -20 -20 -20 -20 -20 -20 -20 -20
19 18 15 10 -20 -8 15 18 11 -17 19 3 -20 -20 -3 6 30 33 34 26 15 10 7 -20 -20 -20 -20 -20 -20 -17 -20 -20 -20 -20 -20 -20 -20 -20 -20 -20 -20 -20 -20 -20
29 18 16 9 10 6 16 20 12 13 15 8 -18 -20 -8 -3 17 30 29 31 27 13 12 13 -4 -20 -20 -20 -8 -20 -20 -20 -20 -20 -20 -20 -20 -20 -20 -20 -20 -20 -20 -20
32 29 23 -2 12 14 15 24 18 5 20 14 -20 -20 -20 11 15 -0 18 9 14 -10 0 -1 -8 -20 -5 -20 -12 -20 -20 -20 -20 -20 -20 -20 -20 -20 -20 -20 -20 -20 -20 -20
25 20 16 14 16 17 20 22 6 -14 -2 12 -10 -20 -20 -19 4 5 26 26 3 23 17 7 -14 -20 -20 -20 -20 -20 -20 -20 -20 -20 -20 -20 -20 -20 -20 -20 -20 -20 -20 -20
14 14 17 -20 6 17 18 34 16 -5 16 19 6 -19 -20 -20 -5 16 27 13 9 13 15 0 -20 -20 -20 -20 -20 -20 -20 -20 -20 -20 -20 -20 -20 -20 -20 -20 -20 -20 -20 -20
9 -20 9 16 20 19 30 25 10 0 19 27 12 -20 -20 -17 5 2 24 13 4 -0 5 -12 -20 -20 -20 -20 -20 -20 -20 -20 -20 -20 -20 -20 -20 -20 -20 -20 -20 -20 -20 -20
14 -11 2 19 28 34 25 -18 -20 -20 10 19 14 -20 -20 -5 14 16 7 36 37 26 -5 -20 -20 -20 -20 -20 -13 -20 -20 -20 -20 -20 -20 -20 -20 -20 -20 -20 -20 -20 -20 -20
18 15 10 24 35 36 25 -1 6 2 7 14 7 5 -2 -15 9 -16 -20 4 21 28 -5 -20 -20 -20 -20 -14 -3 -20 -20 -20 -20 -20 -20 -20 -20 -20 -20 -20 -20 -20 -20 -20
24 30 36 34 36 18 17 30 35 28 18 13 -4 -20 10 12 -13 -19 8 2 -19 -19 -20 -14 -20 -20 -20 -3 -11 -7 -20 -20 -20 -20 -20 -20 -20 -20 -20 -20 -20 -20 -20 -20
27 36 38 8 29 -11 26 22 23 17 14 -7 -20 -20 -10 16 18 20 -20 -20 -20 -8 -2 -20 -20 -20 -19 -20 -18 -18 -20 -20 -20 -20 -20 -20 -20 -20 -20 -20 -20 -20 -20 -20
32 16 32 21 33 33 19 10 5 -5 -19 -20 -20 -20 -20 6 30 17 27 -13 -14 -13 -20 -20 -20 -20 -20 -20 -20 -20 -20 -20 -20 -20 -20 -20 -20 -20 -20 -20 -20 -20 -20 -20
34 22 32 29 27 18 2 1 -4 -20 -20 -20 -20 -20 -20 2 34 22 -17 -19 0 -20 -20 -20 -20 -20 -20 -20 -20 -20 -20 -20 -20 -20 -20 -20 -20 -20 -20 -20 -20 -20 -20 -20
37 31 21 -4 -3 -14 -20 -20 -20 -20 -20 -20 -20 -18 3 -0 11 32 -19 -20 -20 -20 -20 -20 -20 -20 -20 -20 -20 -20 -20 -20 -20 -20 -20 -20 -20 -20 -20 -20 -20 -20 -20 -20
33 26 8 -20 -20 -20 -20 -20 -20 -20 -20 -20 -14 -2 -20 -19 25 20 8 -20 -20 -20 -20 -20 -20 -20 -20 -20 -20 -20 -20 -20 -20 -20 -20 -20 -20 -20 -20 -20 -20 -20 -20 -20
15 13 -6 -20 -20 -20 -20 -20 -20 -20 -20 -20 -20 5 -20 -19 4 4 -20 -20 -20 -20 -20 -16 -19 -20 -20 -20 -20 -20 -20 -20 -20 -20 -20 -20 -20 -20 -20 -20 -20 -20 -20 -20
23 -19 -20 -20 -20 -20 -20 -20 -20 -20 -20 -20 1 -12 -20 -20 -20 -20 -20 -20 -20 -20 -20 -20 -20 -20 -20 -20 -20 -20 -20 -20 -20 -20 -20 -20 -20 -20 -20 -20 -20 -20 -20 -20

GFSNW_prec_radar_294.txt.gz
Reflectivity
-20 -20 -20 -20 -20 -20 -20 19 0 -18 -20 13 16 7 -18 -14 -20 -20 -20 14 5 -20 -11 19 7 -16 -20 12 3 -20 7 -4 -20 -20 -20 7 12 -18 -20 -20 -20 -20 -19 -20
-20 -20 -20 -20 -20 -20 -0 14 1 -20 21 9 8 -15 -20 -20 -17 -20 11 15 13 8 29 29 29 20 15 24 -0 13 -7 -20 -20 -20 -20 -10 16 12 -20 -11 -20 -20 -20 -20
-20 -20 -20 -20 -20 -20 -12 14 8 -6 1 -19 11 -8 -5 4 -13 -20 -10 -10 6 -4 -7 11 23 24 -20 18 19 -20 -20 -20 -20 -20 -20 14 -9 -20 -20 -20 -20 -20 -20 -20
-20 -20 -20 -20 -20 -20 1 14 -6 -9 -4 5 19 7 18 -4 -11 19 -20 -20 -20 7 -20 17 37 18 -20 -20 -20 -20 -20 -14 -20 -20 -8 -20 -20 -20 -20 -20 -20 -20 -1 -20
-20 -20 -20 -20 -20 -6 6 14 9 11 8 -20 3 -20 -20 -16 -1 3 10 -11 2 13 4 14 26 30 -12 -20 -20 -20 -20 -20 -20 -20 -20 -20 -20 -17 -20 -20 -20 -20 -20 -20
-20 -20 -20 -19 -13 14 18 6 -11 13 -19 -18 -10 -11 20 13 -13 1 15 14 36 9 29 34 25 -14 -20 -20 -20 -20 3 -20 -8 -20 -20 -20 -6 -8 -20 -20 -20 -20 -20 -20
-20 -20 -20 -20 -20 16 19 18 21 19 3 8 -13 -20 6 -20 4 -10 -18 17 14 17 -12 -13 9 -20 -20 -20 -20 -20 -20 -20 -20 -20 -20 -19 6 -20 -20 -20 -20 -20 -20 -20
-20 -12 -20 -20 -20 -20 10 11 22 26 14 -12 -17 14 3 5 4 13 5 -12 31 4 12 15 13 1 -20 -20 -20 -20 -20 -20 -19 -20 -20 -20 -20 -20 -20 -20 -20 -20 -20 -20
-20 -15 11 -20 -20 -20 -9 17 22 21 27 -20 -7 11 15 18 -12 -20 -10 24 23 8 25 23 9 -20 -20 -20 -20 -20 -20 22 18 1 -20 -20 -20 -20 -20 -20 -20 -20 -20 -20
-20 -20 -20 -20 -20 -20 19 2 19 21 33 -17 -20 9 10 18 3 10 9 28 27 9 28 1 13 17 -17 -20 -20 -20 -20 -20 -8 15 -0 -20 -20 -20 -20 -20 -20 -20 -20 -20
-20 -20 -5 -20 -20 4 19 -20 15 19 31 5 -20 -20 -4 17 24 17 29 25 33 24 31 24 7 -18 -4 -20 -20 -20 -20 -20 -20 8 -20 -20 -20 -20 -20 -20 -20 -20 -20 -20
-20 -8 -20 -18 -20 -20 -17 16 4 21 19 6 -15 -17 -20 7 21 -2 20 29 33 29 23 14 24 25 -20 -20 -20 -20 -20 -20 -20 -20 -20 -20 -20 -20 -20 -20 -20 -20 -20 -20
-19 -20 -20 4 -20 7 17 17 4 23 16 18 14 -20 -20 -20 -4 -19 15 21 30 29 29 28 27 -2 -20 -20 -20 -20 -20 -20 -20 -20 -20 -20 -20 -20 -20 -20 -20 -20 -20 -20
-20 -20 -20 -20 7 13 14 17 8 23 20 26 -20 -20 -20 -20 -20 -20 7 13 14 4 9 8 -6 38 10 -15 -20 -20 -20 -20 -20 -20 -20 -20 -20 -20 -20 -20 -20 -20 -20 -20
-20 -20 5 12 11 24 26 20 19 20 9 3 15 -13 -20 -17 -20 -20 -10 -17 8 23 22 21 -3 13 -20 -20 -20 -20 -20 -20 -20 -20 -20 -20 -20 -20 -20 -20 -20 -20 -20 -20
-20 9 10 10 27 32 28 34 21 22 15 23 10 -10 -8 4 8 -20 -20 -20 16 18 30 13 4 10 -10 -20 -20 -20 -20 -20 -8 -19 -20 -20 -20 -20 -20 -20 -20 -20 -20 -20
5 7 -1 22 33 33 33 27 -5 -20 22 30 23 -20 -20 -20 -20 -6 11 16 15 19 20 7 13 18 -4 -20 -20 -20 -20 -20 -20 4 -20 -20 -20 -20 -20 -20 -20 -20 -20 -20
7 7 19 31 27 32 22 -17 -20 -3 15 27 22 -7 23 -5 16 7 1 10 11 7 14 13 -4 -1 1 -11 -20 -20 -20 -20 -3 -8 -20 -20 -20 -20 -20 -20 -20 -20 -20 -20
20 26 33 23 33 37 27 19 -13 7 -0 21 0 -7 12 -19 19 14 6 5 15 -15 12 5 13 -4 -18 -20 -20 -20 -20 -20 11 -20 -20 -20 -20 -20 -20 -20 -20 -20 -20 -20
29 38 33 26 26 17 8 16 25 19 18 20 7 -20 -9 26 15 19 24 28 19 13 -20 -20 6 -20 -20 -20 -20 -20 -20 -17 -19 -20 -20 -20 -20 -20 -20 -20 -20 -20 -20 -20
36 38 14 4 5 26 32 28 25 30 26 -12 -20 -20 -20 23 21 20 24 26 18 14 -20 -16 -14 -20 -20 -20 -20 -20 -20 -20 -19 -20 -20 -20 -20 -20 -20 -20 -20 -20 -20 -20
30 30 9 31 31 31 16 5 24 17 10 -20 -20 -20 -20 22 -15 26 14 17 19 -18 -8 3 -20 -20 -20 -20 -20 -20 -19 -19 -20 -20 -20 -20 -20 -20 -20 -20 -20 -20 -20 -20
35 29 33 34 16 14 7 7 -2 -6 -20 -20 -20 -20 -19 -14 -20 7 15 15 11 -20 14 6 -20 -19 -18 -20 -20 -20 -20 -20 -20 -20 -20 -20 -20 -20 -20 -20 -20 -20 -20 -20
33 24 16 7 1 -2 -17 -20 -20 -20 -20 -20 -20 -20 8 8 -20 25 5 -17 22 -13 -20 -20 -20 -20 -19 -20 -20 -20 -20 -20 -20 -20 -20 -20 -20 -20 -20 -20 -20 -20 -20 -20
33 20 17 -9 -7 -20 -20 -20 -20 -20 -20 -20 -8 -8 -20 16 3 -6 15 -2 2 -2 -20 -20 -17 -19 -20 -20 -20 -20 -20 -20 -20 -20 -20 -20 -20 -20 -20 -20 -20 -20 -20 -20
33 2 -3 -20 -20 22 7 -20 -20 -20 -20 -20 -14 12 12 -3 4 1 -12 15 -20 -20 -20 -20 -20 -20 -20 -20 -20 -20 -20 -20 -20 -20 -20 -20 -20 -20 -20 -20 -20 -20 -20 -20
31 20 -20 -20 1 -20 -20 -18 3 -20 -20 17 18 11 13 -18 6 -7 2 20 -1 -20 -20 -20 -20 -20 -20 -20 -20 -20 -20 -20 -20 -20 -20 -20 -20 -20 -20 -20 -20 -20 -20 -20

GFSNW_prec_radar_297.txt.gz
Reflectivity
-20 -20 -20 -20 -20 -20 -20 -20 -20 -2 -20 -20 -9 -20 -20 -20 -20 -20 -20 -20 -20 -20 -11 19 10 -20 12 21 -18 -20 -19 22 -17 20 6 -20 -20 -20 13 8 -20 -20 -20 -20
-20 -20 -20 -20 -20 -20 -20 -20 -20 -20 -6 -20 -20 -20 -20 -20 -20 -20 -20 -15 -20 8 -20 26 -12 14 -9 -7 24 -20 -12 7 10 -20 18 -20 -20 -20 -12 22 -7 -20 -20 -20
-20 -20 -20 -20 -20 -20 -20 -19 -20 -20 -20 -14 6 12 -20 -20 -20 -20 -11 -4 -20 -20 6 26 12 -16 -19 15 25 9 13 -10 -20 -16 18 -20 -20 -20 2 -16 -13 -20 -20 -20
-20 -20 -20 -20 -20 -20 -20 -20 -20 -20 -20 -20 -15 2 -15 -20 -20 -20 -20 -0 -0 1 16 7 20 39 10 25 3 32 30 0 -20 -20 -20 -20 -20 -20 -17 -20 -20 -20 -20 -20
-20 -20 -20 -20 -20 -20 -20 2 -20 -20 -20 -20 -20 -20 -20 -13 14 -20 -20 7 0 16 16 2 11 19 30 19 13 -7 7 -20 -20 -20 -20 -20 -20 -20 -20 -20 -20 -20 -20 -20
-20 -20 -20 -20 -15 -20 -15 -12 -20 11 -20 -20 -20 -20 -20 2 -12 -17 -20 -20 -18 -4 1 5 -20 2 32 25 13 17 -20 -20 -20 -20 -20 -20 -20 -20 -20 -20 -20 -20 -20 -20
-20 -20 -14 -20 -12 4 -20 -8 9 17 -18 -13 -20 -20 -20 -20 -16 -18 -20 -1 -16 -1 -20 -20 -20 -8 26 20 -18 -8 -20 -20 -20 -20 7 -20 -20 -20 -20 -20 -20 -20 -20 -20
-20 -20 -18 0 -20 -20 -20 -20 15 20 12 -7 -20 -20 -20 -20 -20 -15 -20 -20 -20 -20 -18 -3 38 22 23 20 -16 -20 -20 -20 -20 -20 -20 -20 -20 -20 -20 -20 -20 -20 -20 -20
3 -20 -20 6 -6 -20 -20 -20 -1 20 24 -20 -12 -11 -5 -0 1 -20 -20 -20 -20 -20 18 26 38 10 -20 -20 -20 -20 -20 -20 -20 -20 -20 -20 -20 -20 -20 -20 -20 -20 -20 -20
-14 -20 -20 -20 -20 -20 11 -20 -13 17 22 -20 -20 -15 -12 -3 30 2 -20 -20 -15 7 25 14 28 2 -20 -20 -20 -20 -20 -20 -20 -20 -20 -14 -20 -20 -20 -20 -20 -20 -20 -20
-20 -20 -20 -20 -20 -20 18 -20 -13 8 13 -0 -20 -20 -20 -15 14 11 -20 -20 15 1 17 9 34 -11 -20 -20 -20 -20 -20 -20 -20 -20 -8 -18 -20 -20 -20 -20 -20 -20 -20 -20
-20 -20 -20 -20 -20 -20 10 -3 -20 4 20 5 -20 -20 -18 -20 -20 3 -15 -5 -6 9 27 30 37 26 24 -20 -20 -20 -20 -20 -20 -20 -20 -15 -20 -20 -20 -20 -20 -20 -20 -20
-20 -20 -20 -20 -11 -7 16 4 -20 -15 15 -19 -20 -20 -20 -20 -20 -20 16 -9 -7 13 26 32 30 19 21 -20 -20 -20 -20 -20 -20 -20 -20 -20 -20 -20 -20 -20 -20 -20 -20 -20
-20 -20 -20 -20 -20 4 17 16 -8 16 20 19 -19 -20 -20 -20 -20 -20 -7 -14 -18 20 18 30 25 33 -15 0 -20 -20 -20 -20 -20 -20 -20 -20 -20 -20 -20 -20 -20 -20 -20 -20
-20 -20 -20 -20 -20 6 14 14 9 0 13 0 16 -8 -20 -20 -20 -20 -20 -20 -14 -6 27 27 13 32 5 -11 -20 -20 -20 -20 -20 -20 -20 -20 -20 -20 -20 -20 -20 -20 -20 -20
-20 -20 -20 -16 6 8 30 26 -7 -15 12 32 8 -20 -20 -20 -20 -20 -20 -20 -20 -20 14 0 9 11 36 32 3 -20 -20 -20 -20 -20 -20 -7 -20 -20 -20 -20 -20 -20 -20 -20
-20 -20 -20 -20 5 25 32 10 11 4 8 28 14 -20 -20 -20 12 23 26 13 -19 -17 15 13 3 4 13 -19 -20 -20 -20 -20 -20 -20 -2 -20 -20 -20 -20 -20 -20 -20 -20 -20
-20 -8 -18 10 21 33 37 32 28 8 10 25 15 -20 -20 9 3 -2 10 12 -3 -3 -17 -0 14 -7 14 6 -20 -20 -20 -20 -20 -20 -5 -20 -20 -20 -20 -20 -20 -20 -20 -20
-18 9 14 22 27 34 14 23 21 -10 -4 18 1 -20 -20 -20 -20 18 16 14 -2 -20 7 3 -12 -19 15 -14 -20 -5 -20 -20 -20 -20 -20 -20 -20 -20 -20 -20 -20 -20 -20 -20
11 19 29 19 20 12 8 29 34 36 23 -19 -20 -20 -20 -9 18 14 21 19 15 11 -20 -10 -2 -20 -20 -20 -20 -20 -10 -20 -20 -20 -20 -20 -20 -20 -20 -20 -20 -20 -20 -20
19 34 27 11 13 28 29 22 23 23 20 -20 -20 -20 -20 -19 9 35 5 35 24 31 -20 -20 -20 -20 -20 -20 -20 -20 -20 -20 -20 -20 -20 -20 -20 -20 -20 -20 -20 -20 -20 -20
31 32 24 29 18 21 16 15 -18 6 -19 -20 -20 -20 -20 -12 19 30 30 20 6 -4 -19 -20 -20 -20 -20 -20 -20 -20 -20 -20 -20 -18 -19 -20 -20 -20 -20 -20 -20 -20 -20 -20
32 39 35 27 -6 2 -15 1 -8 -20 -20 -20 -20 -20 -20 -20 -18 8 -12 24 -18 -20 23 -4 -18 -8 9 -1 -3 -12 -20 -20 -18 -20 -20 -20 -20 -20 -20 -20 -20 -20 -20 -20
34 25 20 4 5 -20 -20 -20 -20 -20 -20 -20 -20 -20 -20 -20 1 -20 -20 -13 22 5 5 -6 -20 -7 2 4 5 -3 -20 5 2 2 -20 -20 -20 -20 -20 -20 -20 -20 -20 -20
24 34 -7 -10 -20 -20 -20 -20 -20 -20 -20 -20 -20 -20 -20 -20 11 -18 -16 14 2 -20 -20 -20 -5 -7 12 9 -4 -20 -20 -20 -20 -20 -20 -20 -20 -20 -20 -20 -20 -20 -20 -20
31 29 4 -20 -20 -20 -20 -20 -20 -20 -20 -20 -4 3 7 13 -3 -18 -20 6 14 -18 26 10 -10 -20 3 -1 -20 -20 -20 -20 -20 -20 -20 -20 -20 -20 -20 -20 -20 -20 -20 -20
29 -7 -20 -17 -20 -20 -20 -20 -16 -10 -20 -20 -5 2 -18 8 11 9 -20 -20 -20 17 -20 -20 -20 -20 -20 -20 -20 -20 -20 -20 -20 -20 -20 -20 -20 -20 -20 -20 -20 -20 -20 -20